This demonstration page uses our WeatherBlox Daily Observations layout. Learn more.

Hourly Observations for January 16, 2020

Temp ( °F °C ) Dew Point ( °F °C ) Humidity (%) Winds ( mph kmh ) Pressure ( in mb ) Visibility ( mi km ) Precip ( " mm )
12:15 am 00:15 Mostly Cloudy 43 6 43 6 100 100 SSW 8 13 29.97 1015 5 8.0467 0 0
12:35 am 00:35 Mostly Cloudy 43 6 43 6 100 100 SSW 6 9 29.96 1015 5 8.0467 0 0
12:55 am 00:55 Cloudy 43 6 43 6 100 100 SSW 5 7 29.95 1014 5 8.0467 0 0
1:15 am 01:15 Cloudy 43 6 43 6 100 100 SSW 5 7 29.93 1014 5 8.0467 0 0
1:35 am 01:35 Partly Cloudy 43 6 43 6 100 100 Calm 29.93 1014 4 6.43736 0 0
1:55 am 01:55 Mostly Cloudy 43 6 43 6 100 100 Calm 29.93 1014 0.5 0.80467 0 0
2:15 am 02:15 Cloudy 41 5 41 5 100 100 Calm 29.93 1014 0.25 0.402335 0 0
2:35 am 02:35 Cloudy 41 5 41 5 100 100 WSW 6 9 29.93 1014 0.5 0.80467 0 0
2:55 am 02:55 Mostly Cloudy 43 6 43 6 100 100 WSW 6 9 29.92 1013 10 16.0934 0 0
3:15 am 03:15 Mostly Cloudy 43 6 43 6 100 100 WSW 3 6 29.92 1013 10 16.0934 0 0
3:35 am 03:35 Mostly Cloudy 43 6 43 6 100 100 Calm 29.92 1013 10 16.0934 0 0
3:55 am 03:55 Mostly Cloudy 43 6 43 6 100 100 NW 3 6 29.93 1014 10 16.0934 0 0
4:15 am 04:15 Cloudy 43 6 43 6 100 100 W 7 11 29.95 1014 7 11.26538 0 0
4:35 am 04:35 Partly Cloudy 45 7 45 7 100 100 WNW 17 28 29.96 1015 10 16.0934 0 0
4:55 am 04:55 Partly Cloudy 50 10 41 5 71 71 WNW 22 35 29.96 1014 10 16.0934 0 0
5:15 am 05:15 Clear 50 10 37 3 62 62 WNW 25 41 29.97 1015 10 16.0934 0 0
5:35 am 05:35 Clear 52 11 37 3 58 58 NW 30 48 29.97 1015 10 16.0934 0 0
5:55 am 05:55 Clear 50 10 37 3 62 62 NW 21 33 29.99 1015 10 16.0934 0 0
6:15 am 06:15 Partly Cloudy 50 10 37 3 62 62 WNW 18 30 30.01 1016 10 16.0934 0 0
6:35 am 06:35 Clear 50 10 37 3 62 62 WNW 17 28 30.01 1016 10 16.0934 0 0
6:55 am 06:55 Clear 50 10 37 3 62 62 WNW 30 48 30.02 1016 10 16.0934 0 0
7:15 am 07:15 Partly Cloudy 50 10 37 3 62 62 NW 25 41 30.03 1017 10 16.0934 0 0
7:35 am 07:35 Partly Cloudy 50 10 36 2 58 58 NW 35 56 30.03 1017 10 16.0934 0 0
7:55 am 07:55 Sunny 50 10 32 0 50 50 NW 33 54 30.06 1018 10 16.0934 0 0
8:15 am 08:15 Sunny 48 9 32 0 54 54 NW 24 39 30.07 1018 10 16.0934 0 0
8:35 am 08:35 Sunny 48 9 32 0 54 54 NW 22 35 30.09 1019 10 16.0934 0 0
8:55 am 08:55 Sunny 48 9 32 0 54 54 NNW 24 39 30.09 1019 10 16.0934 0 0
9:15 am 09:15 Sunny 48 9 32 0 54 54 NW 23 37 30.11 1020 10 16.0934 0 0
9:35 am 09:35 Sunny 48 9 32 0 54 54 NW 23 37 30.12 1020 10 16.0934 0 0
9:55 am 09:55 Sunny 48 9 32 0 54 54 WNW 28 44 30.14 1021 10 16.0934 0 0
10:15 am 10:15 Sunny 50 10 32 0 50 50 NW 22 35 30.15 1021 10 16.0934 0 0
10:35 am 10:35 Sunny 48 9 30 -1 50 50 NW 29 46 30.16 1021 10 16.0934 0 0
10:55 am 10:55 Sunny N/A N/A N/A NNW 25 41 N/A 10 16.0934 0 0
11:15 am 11:15 Partly Cloudy N/A N/A N/A NW 18 30 N/A 10 16.0934 0 0
11:35 am 11:35 Partly Cloudy N/A N/A N/A NW 17 28 N/A 10 16.0934 0 0
11:55 am 11:55 Partly Cloudy 48 9 28 -2 46 46 NW 23 37 30.15 1021 10 16.0934 0 0
12:15 pm 12:15 Partly Cloudy 48 9 28 -2 46 46 WNW 16 26 30.14 1021 10 16.0934 0 0
12:35 pm 12:35 Sunny 48 9 28 -2 46 46 NW 23 37 30.14 1021 10 16.0934 0 0
12:55 pm 12:55 Partly Cloudy 48 9 27 -3 43 43 NW 30 48 30.15 1021 10 16.0934 0 0
1:15 pm 13:15 Partly Cloudy 46 8 27 -3 46 46 NNW 21 33 30.16 1021 10 16.0934 0 0
1:35 pm 13:35 Partly Cloudy 46 8 27 -3 46 46 NNW 18 30 30.16 1021 10 16.0934 0 0
1:55 pm 13:55 Mostly Cloudy 46 8 27 -3 46 46 NNW 17 28 30.16 1021 10 16.0934 0 0
2:15 pm 14:15 Partly Cloudy 46 8 27 -3 46 46 NNW 24 39 30.17 1022 10 16.0934 0 0
2:35 pm 14:35 Partly Cloudy 46 8 27 -3 46 46 NNW 17 28 30.17 1022 10 16.0934 0 0
2:55 pm 14:55 Partly Cloudy 46 8 27 -3 46 46 NW 25 41 30.17 1022 10 16.0934 0 0
3:15 pm 15:15 Sunny 46 8 25 -4 43 43 NNW 31 50 30.17 1022 10 16.0934 0 0
3:35 pm 15:35 Sunny 46 8 25 -4 43 43 NW 25 41 30.17 1022 10 16.0934 0 0
3:55 pm 15:55 Partly Cloudy 45 7 25 -4 46 46 NW 22 35 30.19 1022 10 16.0934 0 0
4:15 pm 16:15 Partly Cloudy 45 7 23 -5 42 42 NNW 25 41 30.2 1023 10 16.0934 0 0
4:35 pm 16:35 Sunny 43 6 21 -6 42 42 NW 30 48 30.21 1023 10 16.0934 0 0
4:55 pm 16:55 Sunny 43 6 21 -6 42 42 NW 25 41 30.23 1024 10 16.0934 0 0
5:15 pm 17:15 Partly Cloudy 43 6 23 -5 46 46 NNW 23 37 30.25 1024 10 16.0934 0 0
5:35 pm 17:35 Mostly Cloudy 41 5 23 -5 49 49 NNW 22 35 30.28 1026 10 16.0934 0 0
5:55 pm 17:55 Cloudy 41 5 23 -5 49 49 NNW 18 30 30.3 1026 10 16.0934 0 0
6:15 pm 18:15 Mostly Cloudy 39 4 25 -4 56 56 NNW 21 33 30.33 1027 10 16.0934 0 0
6:35 pm 18:35 Partly Cloudy 37 3 25 -4 60 60 NNW 21 33 30.34 1027 10 16.0934 0 0
6:55 pm 18:55 Clear 37 3 23 -5 56 56 NNW 21 33 30.35 1028 10 16.0934 0 0
8:15 pm 20:15 Partly Cloudy 36 2 25 -4 65 65 NNW 20 31 30.38 1029 10 16.0934 0 0
8:35 pm 20:35 Clear 36 2 23 -5 60 60 N 20 31 30.38 1029 10 16.0934 0 0
8:55 pm 20:55 Clear 36 2 23 -5 60 60 NNW 16 26 30.39 1029 10 16.0934 0 0
9:15 pm 21:15 Clear 36 2 23 -5 60 60 NNW 16 26 30.4 1029 10 16.0934 0 0
9:35 pm 21:35 Clear 34 1 23 -5 65 65 NNW 16 26 30.4 1029 10 16.0934 0 0
9:55 pm 21:55 Mostly Cloudy 36 2 23 -5 60 60 NW 18 30 30.42 1030 10 16.0934 0 0
10:15 pm 22:15 Cloudy 36 2 23 -5 60 60 N 14 22 30.43 1030 10 16.0934 0 0
10:35 pm 22:35 Cloudy 36 2 23 -5 60 60 N 15 24 30.44 1031 10 16.0934 0 0
10:55 pm 22:55 Cloudy 34 1 23 -5 65 65 NNW 15 24 30.45 1031 10 16.0934 0 0
11:15 pm 23:15 Mostly Cloudy 34 1 23 -5 65 65 NNW 16 26 30.45 1031 10 16.0934 0 0
11:35 pm 23:35 Mostly Cloudy 34 1 25 -4 70 70 NNW 14 22 30.46 1032 10 16.0934 0 0
11:55 pm 23:55 Mostly Cloudy 32 0 25 -4 75 75 NNW 18 30 30.46 1032 10 16.0934 0 0

Powered by AerisWeather